Tanana, AK

2:02 AM AKDT on August 20, 2017 (GMT -0800)
Calhoun Memorial

Weather History for PATA - December, 2013

Change the Weather History Date:

Friday, December 27, 2013

  Actual Average Record
Temperature  
Mean Temperature -20 °F -  
Max Temperature -15 °F -2 °F 31 °F (1951)
Min Temperature -26 °F -17 °F -57 °F (1961)
Degree Days  
Heating Degree Days 86    
Moisture  
Dew Point -25 °F    
Average Humidity 68    
Maximum Humidity 77    
Minimum Humidity 64    
Precipitation  
Precipitation 0.00 in - - ()
Snow  
Snow 0.00 in - - ()
Snow Depth 10.00 in    
Sea Level Pressure  
Sea Level Pressure 30.26 in    
Wind  
Wind Speed 9 mph (East)    
Max Wind Speed 13 mph    
Max Gust Speed -    
Visibility 10 miles    
Events      
Averages and records for this station are not official NWS values.
T = Trace of Precipitation, MM = Missing Value Source: NWS Daily Summary

Daily Weather History Graph

Daily Weather History Graph

Search for Another Location

Airport or City:

Trip Planner

Search our weather history database for the weather conditions in past years. The results will help you decide how hot, cold, wet, or windy it might be!

Date:

Astronomy

Dec. 27, 2013 Rise Set
Actual Time 11:22 AM AKST 2:57 PM AKST
Civil Twilight 9:54 AM AKST 4:25 PM AKST
Nautical Twilight 8:41 AM AKST 5:37 PM AKST
Astronomical Twilight 7:39 AM AKST 6:40 PM AKST
Moon 4:23 AM AKST (12/27) 12:48 PM AKST (12/27)
Length of Visible Light 6h 30m
Length of Day
3h 34m
Waning Crescent, 27% of the Moon is Illuminated
Dec 27
Waning Crescent
Jan 1
New
Jan 7
First Quarter
Jan 15
Full
Jan 23
Last Quarter

Hourly Weather History & Observations

Time (AKST) Temp. Windchill Dew Point Humidity Pressure Visibility Wind Dir Wind Speed Gust Speed Precip Events Conditions
12:52 AM -18.0 °F -40.7 °F -25.1 °F 70% 30.24 in 10.0 mi East 12.7 mph - N/A   Clear
1:52 AM -26.0 °F -44.2 °F -33.0 °F 69% 30.26 in 10.0 mi Variable 6.9 mph - N/A   Clear
2:52 AM -18.9 °F -41.8 °F -26.0 °F 70% 30.26 in 10.0 mi East 12.7 mph - N/A   Clear
3:52 AM -18.0 °F -37.5 °F -25.1 °F 70% 30.26 in 10.0 mi East 9.2 mph - N/A   Clear
4:52 AM -18.0 °F -37.5 °F -25.1 °F 70% 30.26 in 10.0 mi ESE 9.2 mph - N/A   Clear
5:52 AM -18.9 °F - -27.0 °F 66% 30.27 in 10.0 mi Calm Calm - N/A   Clear
6:52 AM -18.0 °F - -26.0 °F 67% 30.26 in 10.0 mi Calm Calm - N/A   Clear
7:52 AM -18.0 °F -39.7 °F -25.1 °F 70% 30.26 in 10.0 mi ESE 11.5 mph - N/A   Clear
8:52 AM -22.0 °F - -29.0 °F 70% 30.27 in 10.0 mi Calm Calm - N/A   Clear
9:52 AM -17.0 °F -31.7 °F -25.1 °F 67% 30.27 in 10.0 mi East 5.8 mph - N/A   Clear
10:52 AM -16.1 °F -37.2 °F -24.0 °F 67% 30.27 in 10.0 mi ENE 11.5 mph - N/A   Clear
11:52 AM -16.1 °F -35.0 °F -24.0 °F 67% 30.27 in 10.0 mi ENE 9.2 mph - N/A   Clear
12:52 PM -16.1 °F -33.7 °F -24.0 °F 67% 30.27 in 10.0 mi NE 8.1 mph - N/A   Clear
1:52 PM -15.0 °F -36.8 °F -23.1 °F 67% 30.27 in 10.0 mi ENE 12.7 mph - N/A   Clear
2:52 PM -15.0 °F -34.8 °F -23.1 °F 67% 30.27 in 10.0 mi East 10.4 mph - N/A   Clear
3:52 PM -16.1 °F -35.0 °F -24.0 °F 67% 30.27 in 10.0 mi ESE 9.2 mph - N/A   Clear
4:52 PM -26.0 °F -40.2 °F -31.0 °F 77% 30.27 in 10.0 mi ENE 4.6 mph - N/A   Clear
5:52 PM -16.1 °F -36.2 °F -24.0 °F 67% 30.26 in 10.0 mi ESE 10.4 mph - N/A   Clear
6:52 PM -15.0 °F -32.4 °F -24.0 °F 64% 30.25 in 10.0 mi East 8.1 mph - N/A   Clear
7:52 PM -15.0 °F -33.7 °F -24.0 °F 64% 30.24 in 10.0 mi ESE 9.2 mph - N/A   Clear
8:52 PM -15.0 °F -33.7 °F -24.0 °F 64% 30.25 in 10.0 mi East 9.2 mph - N/A   Clear
9:52 PM -22.0 °F -39.4 °F -27.9 °F 74% 30.24 in 10.0 mi ENE 6.9 mph - N/A   Clear
10:52 PM -15.0 °F -33.7 °F -23.1 °F 67% 30.25 in 10.0 mi ENE 9.2 mph - N/A   Clear
11:52 PM -16.1 °F -35.0 °F -23.1 °F 71% 30.23 in 10.0 mi ENE 9.2 mph - N/A   Clear